Location: Unspecified
(0.0000°N, 0.0000°E)
Time: 19:17:18
(UTC+00:00)

Envisat - Pass Details

Date: 02 October 2022
Orbit: 764 x 765 km, 98.2° (Epoch: 27 September)

Event Time Altitude Azimuth Distance (km) Brightness Sun altitude
Rises 03:08:52 0° 36° (NE) 3,215 6.6 -40.1°
Reaches altitude 10° 03:11:34 10° 50° (NE) 2,292 5.9 -39.4°
Enters shadow 03:14:42 23° 87° (E) 1,596 5.1 -38.6°
Exits shadow 03:19:32 10° 155° (SSE) 2,291 5.7 -37.4°
Drops below altitude 10° 03:19:38 10° 155° (SSE) 2,321 5.7 -37.4°
Sets 03:22:16 0° 168° (SSE) 3,229 6.4 -36.7°
